TAM9540 SGAS-SBCF

Flight info

Callsign TAM9540
Flight time N/A
Altitude 35000
Route ROLOK ROLOK UM548 FOZ UZ65 ANSOK DCT VULAD
Aircraft A321/M-SDE3FGHIRWY/LB1

Departure

Time 2026-04-28 14:33
Airport Silvio Pettirossi International Airport (SGAS)

Arrival

Time N/A
Airport Tancredo Neves International Airport (SBCF)
Time Latitude Longitude Altitude Speed Heading
2026-04-28 13:48 -25.24276 -57.51421 299 ft 0 kts
2026-04-28 14:13 -25.24293 -57.51420 303 ft 4 kts 355°
2026-04-28 14:13 -25.24320 -57.51417 301 ft 4 kts 355°
2026-04-28 14:13 -25.24344 -57.51419 300 ft 4 kts 43°
2026-04-28 14:13 -25.24360 -57.51441 303 ft 4 kts 56°
2026-04-28 14:14 -25.24365 -57.51448 302 ft 0 kts 59°
2026-04-28 14:15 -25.24360 -57.51442 303 ft 2 kts 51°
2026-04-28 14:16 -25.24344 -57.51431 303 ft 6 kts 25°
2026-04-28 14:16 -25.24298 -57.51422 303 ft 7 kts
2026-04-28 14:16 -25.24282 -57.51421 299 ft 0 kts
2026-04-28 14:23 -25.24293 -57.51422 303 ft 4 kts 18°
2026-04-28 14:23 -25.24320 -57.51433 302 ft 4 kts 18°
2026-04-28 14:23 -25.24337 -57.51440 303 ft 4 kts 11°
2026-04-28 14:24 -25.24358 -57.51441 303 ft 4 kts 351°
2026-04-28 14:24 -25.24382 -57.51430 300 ft 4 kts 318°
2026-04-28 14:24 -25.24396 -57.51418 301 ft 0 kts 336°
2026-04-28 14:26 -25.24382 -57.51425 301 ft 4 kts 334°
2026-04-28 14:26 -25.24356 -57.51457 301 ft 9 kts 294°
2026-04-28 14:26 -25.24335 -57.51540 300 ft 12 kts 285°
2026-04-28 14:27 -25.24317 -57.51630 303 ft 12 kts 280°
2026-04-28 14:27 -25.24305 -57.51723 299 ft 12 kts 281°
2026-04-28 14:27 -25.24248 -57.51771 299 ft 12 kts
2026-04-28 14:27 -25.24165 -57.51750 300 ft 14 kts 12°
2026-04-28 14:28 -25.24062 -57.51724 301 ft 16 kts 13°
2026-04-28 14:28 -25.23951 -57.51695 300 ft 17 kts 13°
2026-04-28 14:28 -25.23836 -57.51667 302 ft 17 kts 14°
2026-04-28 14:28 -25.23720 -57.51632 300 ft 17 kts 14°
2026-04-28 14:29 -25.23601 -57.51604 302 ft 18 kts 12°
2026-04-28 14:29 -25.23480 -57.51576 302 ft 18 kts 12°
2026-04-28 14:29 -25.23358 -57.51543 299 ft 18 kts 13°
2026-04-28 14:29 -25.23236 -57.51513 301 ft 18 kts 13°
2026-04-28 14:30 -25.23111 -57.51482 302 ft 18 kts 12°
2026-04-28 14:30 -25.22985 -57.51451 300 ft 19 kts 12°
2026-04-28 14:30 -25.22858 -57.51418 300 ft 19 kts 13°
2026-04-28 14:30 -25.22729 -57.51386 301 ft 19 kts 12°
2026-04-28 14:31 -25.22619 -57.51359 303 ft 10 kts 12°
2026-04-28 14:31 -25.22574 -57.51360 301 ft 6 kts 333°
2026-04-28 14:31 -25.22551 -57.51401 300 ft 7 kts 292°
2026-04-28 14:31 -25.22540 -57.51454 300 ft 8 kts 283°
2026-04-28 14:32 -25.22528 -57.51515 300 ft 10 kts 275°
2026-04-28 14:32 -25.22581 -57.51565 299 ft 16 kts 194°
2026-04-28 14:32 -25.22970 -57.51662 303 ft 97 kts 192°
2026-04-28 14:32 -25.23846 -57.51876 302 ft 159 kts 192°
2026-04-28 14:33 -25.25021 -57.52168 811 ft 176 kts 191°
2026-04-28 14:33 -25.26222 -57.52466 1689 ft 182 kts 188°
2026-04-28 14:33 -25.27529 -57.52778 2197 ft 201 kts 188°
2026-04-28 14:33 -25.28961 -57.53119 2345 ft 220 kts 189°
2026-04-28 14:34 -25.32269 -57.53787 2859 ft 255 kts 173°
2026-04-28 14:34 -25.33904 -57.53096 3320 ft 255 kts 137°
2026-04-28 14:34 -25.34855 -57.51502 3808 ft 256 kts 108°
2026-04-28 14:35 -25.35240 -57.49556 4374 ft 258 kts 97°
2026-04-28 14:35 -25.35430 -57.47574 4978 ft 261 kts 94°
2026-04-28 14:35 -25.35612 -57.45566 5566 ft 266 kts 95°
2026-04-28 14:35 -25.35845 -57.43517 6169 ft 270 kts 96°
2026-04-28 14:36 -25.36085 -57.41431 6703 ft 276 kts 89°
2026-04-28 14:36 -25.36028 -57.39324 7240 ft 281 kts 86°
2026-04-28 14:36 -25.35989 -57.37137 7811 ft 286 kts 87°
2026-04-28 14:36 -25.35976 -57.34919 8392 ft 291 kts 87°
2026-04-28 14:37 -25.35977 -57.32665 8967 ft 295 kts 87°
2026-04-28 14:37 -25.35982 -57.30377 9551 ft 300 kts 87°
2026-04-28 14:37 -25.35984 -57.28051 10108 ft 305 kts 86°
2026-04-28 14:37 -25.35981 -57.25635 10332 ft 323 kts 86°
2026-04-28 14:38 -25.35973 -57.23106 10635 ft 336 kts 87°
2026-04-28 14:38 -25.35962 -57.20482 11001 ft 345 kts 87°
2026-04-28 14:38 -25.35954 -57.17795 11386 ft 354 kts 87°
2026-04-28 14:38 -25.35944 -57.15057 11611 ft 369 kts 87°
2026-04-28 14:39 -25.35932 -57.12155 11755 ft 384 kts 87°
2026-04-28 14:39 -25.35920 -57.09175 12135 ft 391 kts 87°
2026-04-28 14:39 -25.35911 -57.06144 12614 ft 395 kts 87°
2026-04-28 14:39 -25.35900 -57.03092 13098 ft 399 kts 87°
2026-04-28 14:40 -25.35889 -57.00004 13567 ft 402 kts 87°
2026-04-28 14:40 -25.35882 -56.97956 13871 ft 405 kts 87°
2026-04-28 14:40 -25.35866 -56.93763 14418 ft 409 kts 87°
2026-04-28 14:40 -25.35851 -56.90610 14827 ft 412 kts 87°
2026-04-28 14:41 -25.35833 -56.87427 15247 ft 415 kts 87°
2026-04-28 14:41 -25.35813 -56.84217 15666 ft 419 kts 87°
2026-04-28 14:41 -25.35794 -56.80985 16063 ft 423 kts 87°
2026-04-28 14:41 -25.35774 -56.77725 16476 ft 426 kts 86°
2026-04-28 14:42 -25.35752 -56.74433 16908 ft 430 kts 87°
2026-04-28 14:42 -25.35729 -56.71116 17329 ft 433 kts 87°
2026-04-28 14:42 -25.35709 -56.67778 17758 ft 436 kts 87°
2026-04-28 14:42 -25.35691 -56.64407 18195 ft 440 kts 87°
2026-04-28 14:43 -25.35717 -56.61019 18584 ft 445 kts 91°
2026-04-28 14:43 -25.36067 -56.57602 18921 ft 450 kts 95°
2026-04-28 14:43 -25.36466 -56.54151 19260 ft 454 kts 95°
2026-04-28 14:43 -25.36861 -56.50721 19575 ft 458 kts 95°
2026-04-28 14:44 -25.37264 -56.47207 19904 ft 461 kts 95°
2026-04-28 14:44 -25.37668 -56.43674 20217 ft 465 kts 95°
2026-04-28 14:44 -25.38071 -56.40111 20528 ft 469 kts 95°
2026-04-28 14:44 -25.38474 -56.36520 20837 ft 472 kts 95°
2026-04-28 14:45 -25.38880 -56.32896 21140 ft 476 kts 95°
2026-04-28 14:45 -25.39290 -56.29253 21425 ft 480 kts 95°
2026-04-28 14:45 -25.39706 -56.25578 21709 ft 484 kts 95°
2026-04-28 14:45 -25.40126 -56.21876 21994 ft 487 kts 95°
2026-04-28 14:46 -25.40547 -56.18144 22291 ft 490 kts 95°
2026-04-28 14:46 -25.40969 -56.14390 22574 ft 493 kts 95°
2026-04-28 14:46 -25.41390 -56.10618 22845 ft 497 kts 95°
2026-04-28 14:46 -25.41810 -56.06809 23119 ft 500 kts 95°
2026-04-28 14:47 -25.42231 -56.02973 23403 ft 503 kts 95°
2026-04-28 14:47 -25.42657 -55.99114 23695 ft 507 kts 94°
2026-04-28 14:47 -25.43085 -55.95235 23924 ft 510 kts 95°
2026-04-28 14:47 -25.43517 -55.91323 24169 ft 513 kts 95°
2026-04-28 14:48 -25.43945 -55.87449 24420 ft 515 kts 95°
2026-04-28 14:48 -25.44381 -55.83505 24667 ft 518 kts 95°
2026-04-28 14:48 -25.44817 -55.79538 24912 ft 520 kts 95°
2026-04-28 14:48 -25.45248 -55.75559 25146 ft 522 kts 94°
2026-04-28 14:49 -25.45677 -55.71553 25387 ft 524 kts 94°
2026-04-28 14:49 -25.46106 -55.67543 25624 ft 527 kts 94°
2026-04-28 14:49 -25.46538 -55.63512 25870 ft 529 kts 94°
2026-04-28 14:49 -25.46976 -55.59462 26100 ft 531 kts 95°
2026-04-28 14:50 -25.47419 -55.55387 26326 ft 533 kts 95°
2026-04-28 14:50 -25.47862 -55.51307 26547 ft 535 kts 95°
2026-04-28 14:50 -25.48301 -55.47211 26796 ft 537 kts 94°
2026-04-28 14:50 -25.48739 -55.43100 27035 ft 539 kts 94°
2026-04-28 14:51 -25.49173 -55.39028 27271 ft 541 kts 94°
2026-04-28 14:51 -25.49613 -55.34880 27500 ft 543 kts 94°
2026-04-28 14:51 -25.50054 -55.30723 27759 ft 546 kts 94°
2026-04-28 14:51 -25.50497 -55.26535 27986 ft 548 kts 94°
2026-04-28 14:52 -25.50937 -55.22354 28301 ft 547 kts 94°
2026-04-28 14:52 -25.51379 -55.18161 28639 ft 547 kts 94°
2026-04-28 14:52 -25.51819 -55.13975 28963 ft 547 kts 94°
2026-04-28 14:52 -25.52255 -55.09792 29278 ft 547 kts 94°
2026-04-28 14:53 -25.52688 -55.05611 29586 ft 547 kts 94°
2026-04-28 14:53 -25.53118 -55.01429 29894 ft 547 kts 94°
2026-04-28 14:53 -25.53546 -54.97243 30201 ft 546 kts 94°
2026-04-28 14:53 -25.53975 -54.93065 30489 ft 546 kts 94°
2026-04-28 14:54 -25.54404 -54.88889 30758 ft 546 kts 94°
2026-04-28 14:54 -25.54830 -54.84718 31020 ft 545 kts 94°
2026-04-28 14:54 -25.55254 -54.80545 31278 ft 545 kts 94°
2026-04-28 14:54 -25.55682 -54.76370 31534 ft 545 kts 94°
2026-04-28 14:55 -25.56109 -54.72204 31794 ft 544 kts 94°
2026-04-28 14:55 -25.56534 -54.68039 32076 ft 544 kts 94°
2026-04-28 14:55 -25.56955 -54.63874 32370 ft 543 kts 94°
2026-04-28 14:55 -25.57371 -54.59708 32539 ft 545 kts 93°
2026-04-28 14:56 -25.57486 -54.55533 32727 ft 541 kts 82°
2026-04-28 14:56 -25.56983 -54.51430 32936 ft 534 kts 71°
2026-04-28 14:56 -25.55947 -54.47511 33158 ft 526 kts 62°
2026-04-28 14:56 -25.54472 -54.43850 33388 ft 517 kts 54°
2026-04-28 14:57 -25.52631 -54.40464 33603 ft 512 kts 49°
2026-04-28 14:57 -25.51362 -54.38262 33753 ft 512 kts 49°
2026-04-28 14:57 -25.48800 -54.33811 34055 ft 512 kts 49°
2026-04-28 14:57 -25.46914 -54.30534 34228 ft 512 kts 50°
2026-04-28 14:58 -25.45001 -54.27213 34415 ft 512 kts 50°
2026-04-28 14:58 -25.43083 -54.23884 34590 ft 512 kts 50°
2026-04-28 14:58 -25.41166 -54.20563 34786 ft 512 kts 50°
2026-04-28 14:58 -25.39248 -54.17246 34965 ft 512 kts 49°
2026-04-28 14:59 -25.37326 -54.13925 35093 ft 513 kts 49°
2026-04-28 14:59 -25.33472 -54.07265 35119 ft 515 kts 49°
2026-04-28 15:00 -25.29609 -54.00596 35121 ft 515 kts 49°
2026-04-28 15:00 -25.25741 -53.93940 35122 ft 515 kts 49°
2026-04-28 15:01 -25.21862 -53.87291 35122 ft 514 kts 49°
2026-04-28 15:01 -25.17787 -53.80832 35129 ft 510 kts 45°
2026-04-28 15:02 -25.13553 -53.74540 35151 ft 510 kts 45°
2026-04-28 15:02 -25.09352 -53.68274 35153 ft 511 kts 46°
2026-04-28 15:03 -25.05168 -53.61919 35176 ft 512 kts 46°
2026-04-28 15:03 -25.00999 -53.55540 35154 ft 512 kts 46°
2026-04-28 15:04 -24.96819 -53.49195 35164 ft 511 kts 46°
2026-04-28 15:04 -24.92625 -53.42853 35120 ft 511 kts 46°
2026-04-28 15:05 -24.88432 -53.36510 35120 ft 511 kts 46°
2026-04-28 15:05 -24.84245 -53.30177 35123 ft 511 kts 46°
2026-04-28 15:06 -24.80048 -53.23856 35115 ft 511 kts 46°
2026-04-28 15:06 -24.75844 -53.17537 35123 ft 511 kts 46°
2026-04-28 15:07 -24.71665 -53.11248 35123 ft 512 kts 46°
2026-04-28 15:07 -24.67455 -53.04930 35121 ft 511 kts 46°
2026-04-28 15:08 -24.63265 -52.98618 35109 ft 512 kts 46°
2026-04-28 15:08 -24.59073 -52.92293 35115 ft 512 kts 46°
2026-04-28 15:09 -24.54880 -52.85983 35092 ft 511 kts 46°
2026-04-28 15:09 -24.51391 -52.80753 35106 ft 511 kts 46°
2026-04-28 15:10 -24.47160 -52.74412 35104 ft 511 kts 46°
2026-04-28 15:10 -24.42987 -52.68161 35122 ft 511 kts 46°
2026-04-28 15:11 -24.38766 -52.61889 35120 ft 510 kts 46°
2026-04-28 15:11 -24.34536 -52.55638 35118 ft 509 kts 46°
2026-04-28 15:12 -24.30316 -52.49401 35106 ft 509 kts 46°
2026-04-28 15:12 -24.26098 -52.43176 35110 ft 509 kts 46°
2026-04-28 15:13 -24.21887 -52.36950 35108 ft 508 kts 46°
2026-04-28 15:13 -24.17679 -52.30730 35108 ft 508 kts 46°
2026-04-28 15:14 -24.13470 -52.24509 35096 ft 508 kts 46°
2026-04-28 15:14 -24.09294 -52.18340 35083 ft 497 kts 46°
2026-04-28 15:15 -24.05167 -52.12231 35086 ft 503 kts 46°
2026-04-28 15:15 -24.00932 -52.06132 35079 ft 503 kts 45°
2026-04-28 15:16 -23.96606 -52.00098 35083 ft 502 kts 45°
2026-04-28 15:16 -23.92322 -51.94134 35082 ft 502 kts 45°
2026-04-28 15:17 -23.88021 -51.88100 35086 ft 503 kts 45°
2026-04-28 15:17 -23.83735 -51.82060 35089 ft 503 kts 45°
2026-04-28 15:18 -23.79448 -51.76024 35087 ft 503 kts 45°
2026-04-28 15:18 -23.75146 -51.69997 35094 ft 503 kts 45°
2026-04-28 15:19 -23.70863 -51.63968 35100 ft 503 kts 46°
2026-04-28 15:19 -23.66603 -51.57906 35106 ft 503 kts 46°
2026-04-28 15:20 -23.62343 -51.51851 35115 ft 502 kts 46°
2026-04-28 15:20 -23.58074 -51.45809 35118 ft 502 kts 46°
2026-04-28 15:21 -23.53840 -51.39839 35120 ft 501 kts 46°
2026-04-28 15:21 -23.49596 -51.33814 35116 ft 502 kts 47°
2026-04-28 15:22 -23.45397 -51.27744 35123 ft 501 kts 47°
2026-04-28 15:22 -23.41214 -51.21676 35134 ft 500 kts 47°
2026-04-28 15:23 -23.37017 -51.15639 35134 ft 500 kts 47°
2026-04-28 15:23 -23.33064 -51.09406 35131 ft 506 kts 58°
2026-04-28 15:24 -23.29832 -51.02584 35132 ft 507 kts 58°
2026-04-28 15:24 -23.26590 -50.95773 35118 ft 507 kts 58°
2026-04-28 15:25 -23.23334 -50.88970 35092 ft 507 kts 58°
2026-04-28 15:25 -23.20086 -50.82177 35097 ft 505 kts 58°
2026-04-28 15:26 -23.16854 -50.75398 35088 ft 504 kts 58°
2026-04-28 15:26 -23.13624 -50.68646 35090 ft 503 kts 58°
2026-04-28 15:27 -23.10390 -50.61913 35097 ft 502 kts 58°
2026-04-28 15:27 -23.07159 -50.55196 35075 ft 502 kts 58°
2026-04-28 15:28 -23.03933 -50.48478 35074 ft 501 kts 58°
2026-04-28 15:28 -23.00711 -50.41787 35065 ft 500 kts 58°
2026-04-28 15:29 -22.97487 -50.35090 35077 ft 500 kts 58°
2026-04-28 15:29 -22.94263 -50.28406 35078 ft 500 kts 58°
2026-04-28 15:30 -22.91033 -50.21720 35080 ft 500 kts 58°
2026-04-28 15:30 -22.87807 -50.15047 35088 ft 499 kts 58°
2026-04-28 15:31 -22.84580 -50.08373 35084 ft 499 kts 58°
2026-04-28 15:31 -22.81366 -50.01742 35091 ft 499 kts 58°
2026-04-28 15:32 -22.78131 -49.95093 35081 ft 499 kts 58°
2026-04-28 15:32 -22.74896 -49.88453 35093 ft 499 kts 58°
2026-04-28 15:33 -22.71663 -49.81803 35095 ft 498 kts 58°
2026-04-28 15:33 -22.68429 -49.75166 35088 ft 498 kts 58°
2026-04-28 15:34 -22.65189 -49.68538 35088 ft 498 kts 58°
2026-04-28 15:34 -22.61938 -49.61919 35092 ft 498 kts 58°
2026-04-28 15:35 -22.58675 -49.55287 35016 ft 501 kts 58°
2026-04-28 15:35 -22.53741 -49.45247 35040 ft 506 kts 58°
2026-04-28 15:36 -22.50427 -49.38509 35044 ft 509 kts 58°
2026-04-28 15:36 -22.47097 -49.31751 35063 ft 510 kts 58°
2026-04-28 15:37 -22.43753 -49.24979 35088 ft 510 kts 58°
2026-04-28 15:37 -22.40975 -49.19358 35114 ft 510 kts 57°
2026-04-28 15:38 -22.38288 -49.15175 35125 ft 502 kts 44°
2026-04-28 15:38 -22.35842 -49.12527 35130 ft 497 kts 38°
2026-04-28 15:38 -22.30779 -49.07421 35132 ft 498 kts 38°
2026-04-28 15:39 -22.25736 -49.02304 35135 ft 498 kts 38°
2026-04-28 15:39 -22.20692 -48.97184 35125 ft 498 kts 38°
2026-04-28 15:40 -22.15636 -48.92078 35114 ft 497 kts 38°
2026-04-28 15:40 -22.10586 -48.86977 35099 ft 497 kts 38°
2026-04-28 15:41 -22.05531 -48.81884 35085 ft 497 kts 38°
2026-04-28 15:41 -22.00506 -48.76825 35085 ft 497 kts 38°
2026-04-28 15:42 -21.95456 -48.71740 35086 ft 497 kts 38°
2026-04-28 15:42 -21.90395 -48.66649 35086 ft 497 kts 38°
2026-04-28 15:43 -21.85341 -48.61569 35082 ft 497 kts 38°
2026-04-28 15:43 -21.80290 -48.56494 35089 ft 497 kts 38°
2026-04-28 15:44 -21.75231 -48.51423 35082 ft 496 kts 38°
2026-04-28 15:44 -21.70184 -48.46370 35085 ft 495 kts 38°
2026-04-28 15:45 -21.65135 -48.41329 35088 ft 495 kts 38°
2026-04-28 15:45 -21.60092 -48.36294 35087 ft 494 kts 38°
2026-04-28 15:46 -21.55065 -48.31271 35084 ft 493 kts 38°
2026-04-28 15:46 -21.50039 -48.26247 35075 ft 493 kts 38°
2026-04-28 15:47 -21.45012 -48.21236 35078 ft 493 kts 38°
2026-04-28 15:47 -21.39980 -48.16229 35052 ft 494 kts 38°
2026-04-28 15:48 -21.34968 -48.11246 35046 ft 495 kts 38°
2026-04-28 15:48 -21.29917 -48.06223 35049 ft 495 kts 38°
2026-04-28 15:49 -21.24861 -48.01203 35040 ft 496 kts 38°
2026-04-28 15:49 -21.19788 -47.96180 35043 ft 497 kts 38°
2026-04-28 15:50 -21.14710 -47.91153 35048 ft 497 kts 38°
2026-04-28 15:50 -21.09633 -47.86126 35062 ft 497 kts 38°
2026-04-28 15:51 -21.04547 -47.81099 35054 ft 497 kts 38°
2026-04-28 15:51 -20.99457 -47.76076 35056 ft 497 kts 38°
2026-04-28 15:52 -20.95242 -47.71916 35058 ft 496 kts 38°
2026-04-28 15:52 -20.90171 -47.66908 35062 ft 496 kts 38°
2026-04-28 15:53 -20.85072 -47.61872 35063 ft 495 kts 38°
2026-04-28 15:53 -20.80038 -47.56919 35054 ft 495 kts 38°
2026-04-28 15:54 -20.74966 -47.51942 35058 ft 495 kts 38°
2026-04-28 15:54 -20.69907 -47.46971 35056 ft 494 kts 38°
2026-04-28 15:55 -20.64839 -47.42001 35064 ft 494 kts 38°
2026-04-28 15:55 -20.59773 -47.37035 35066 ft 494 kts 38°
2026-04-28 15:56 -20.54716 -47.32083 35073 ft 493 kts 38°
2026-04-28 15:56 -20.49652 -47.27135 35077 ft 493 kts 38°
2026-04-28 15:57 -20.44597 -47.22192 35073 ft 492 kts 38°
2026-04-28 15:57 -20.39559 -47.17261 35070 ft 492 kts 38°
2026-04-28 15:58 -20.34514 -47.12329 35077 ft 492 kts 39°
2026-04-28 15:58 -20.29465 -47.07407 35080 ft 492 kts 39°
2026-04-28 15:59 -20.24414 -47.02497 35083 ft 491 kts 39°
2026-04-28 15:59 -20.19366 -46.97590 35085 ft 491 kts 38°
2026-04-28 16:00 -20.14348 -46.92713 35091 ft 491 kts 39°
2026-04-28 16:00 -20.09311 -46.87809 35092 ft 491 kts 39°
2026-04-28 16:01 -20.04266 -46.82909 35093 ft 491 kts 39°
2026-04-28 16:01 -19.99219 -46.78021 35089 ft 491 kts 39°
2026-04-28 16:02 -19.94162 -46.73130 35097 ft 491 kts 39°
2026-04-28 16:02 -19.89107 -46.68238 35101 ft 491 kts 39°
2026-04-28 16:03 -19.84057 -46.63346 35101 ft 491 kts 39°
2026-04-28 16:03 -19.79000 -46.58458 35096 ft 491 kts 39°
2026-04-28 16:04 -19.73945 -46.53579 35101 ft 491 kts 39°
2026-04-28 16:04 -19.68891 -46.48704 35100 ft 491 kts 39°